#timestamp,LO_Frequency,Hit,StdDev 
1572314415.7,286046997.4,N
1572314435.5,286046999.0,N
1572314455.4,286046996.7,N
1572314475.2,286046999.1,N
1572314495.0,286046999.6,N
1572314495.9,286046999.6,N
1572314515.8,286046999.0,N
1572314535.6,286046999.4,N
1572314555.4,286046999.1,N
1572314575.3,286046999.4,N
1572314595.1,286046996.5,N
1572314615.9,286046998.7,N
1572314635.7,286046999.4,N
1572314655.5,286046999.5,N
1572314675.4,286046999.6,N
1572314695.2,286046998.7,N
1572314715.0,286046999.3,N
1572314715.9,286046999.3,N
1572314735.8,286046996.8,N
1572314755.6,286046999.3,N
1572314775.5,286046999.5,N
1572314795.3,286046999.6,N
1572314815.1,286046996.5,Y
1572314835.9,286046998.6,P
1572314855.7,286046999.9,N
1572314875.6,286046999.8,N
1572314895.4,286047000.7,N
1572314915.2,286047000.2,N
1572314935.1,286047000.2,N
1572314936.0,286047000.2,N
1572314955.8,286047000.3,N
1572314975.7,286047000.9,N
1572314995.5,286047000.7,N
1572315015.3,286046998.1,N
1572315035.2,286046998.6,N
1572315055.9,286046998.5,N
1572315075.7,286047000.9,N
1572315095.6,286046998.1,N
1572315115.4,286047000.1,N
1572315135.3,286047000.0,N
1572315155.1,286047002.5,N
1572315156.0,286047002.5,N
1572315175.8,286047000.6,N
1572315195.7,286047001.0,N
1572315215.5,286046998.8,N
1572315235.3,286046998.9,N
1572315255.2,286046998.5,N
1572315275.0,286047000.4,N
1572315275.9,286047000.4,N
1572315295.8,286047001.2,N
1572315315.6,286047002.5,N
1572315335.4,286047002.5,N
1572315355.3,286047002.3,N
1572315375.1,286046999.8,N
1572315395.8,286047002.4,N
1572315415.7,286047002.7,N
1572315435.5,286046999.7,N
1572315455.4,286047000.6,N
1572315475.2,286047001.2,N
1572315495.0,286047000.5,N
1572315495.9,286047000.5,N
1572315515.8,286047000.9,N
1572315535.6,286046998.3,N
1572315555.4,286046998.8,N
1572315575.3,286046999.0,N
1572315595.1,286046998.7,N
1572315615.9,286046998.7,N
1572315635.7,286046999.6,N
1572315655.5,286046998.8,N
1572315675.4,286046999.3,N
1572315695.2,286046999.1,N
1572315715.0,286047001.1,N
1572315715.9,286047001.1,N
1572315735.8,286047000.4,N
1572315755.6,286047002.2,N
1572315775.5,286046999.9,N
1572315795.3,286047000.1,N
1572315815.1,286047002.8,N
1572315835.9,286047002.2,N
1572315855.7,286047002.6,N
1572315875.5,286047002.5,N
1572315895.4,286047004.3,N
1572315915.2,286047003.9,N
1572315935.1,286047003.9,N
1572315936.0,286047003.9,N
1572315955.8,286047003.1,N
1572315975.6,286047003.3,N
1572315995.5,286047005.9,Y
1572316015.3,286047005.5,P
1572316035.2,286047005.4,N
1572316055.9,286047006.0,N
1572316075.7,286047004.4,N
1572316095.6,286047002.0,N
1572316115.4,286046998.2,N
1572316135.2,286046999.4,N
1572316155.1,286046996.9,N
1572316156.0,286046996.9,N
1572316175.8,286046999.5,N
1572316195.7,286046997.4,N
1572316215.5,286046997.7,N
1572316235.3,286046998.0,N
1572316255.2,286046997.2,N
1572316275.0,286046995.4,N
1572316275.9,286046995.4,N
1572316295.7,286046993.7,N
1572316315.6,286046995.5,N
1572316335.4,286046997.2,N
1572316355.3,286046997.1,N
1572316375.1,286046998.8,N
1572316376.0,286046998.8,N
1572316395.8,286046997.0,N
1572316415.7,286046996.6,N
1572316435.5,286046996.7,N
1572316455.3,286046996.8,N
1572316475.2,286046994.9,N
1572316495.0,286046995.3,N
1572316495.9,286046995.3,N
1572316515.8,286046997.5,N
1572316535.6,286046997.1,N
1572316555.4,286046996.5,N
1572316575.3,286046997.8,N
1572316595.1,286046997.2,N
1572316615.9,286046997.3,N
1572316635.7,286046996.8,N
1572316655.5,286046997.8,N
1572316675.4,286046996.9,N
1572316695.2,286046997.2,N
1572316715.0,286046995.6,Y
1572316715.9,286046995.6,P
1572316735.8,286046999.0,N
1572316755.6,286046999.6,N
1572316775.5,286046996.5,N
1572316795.3,286046996.6,N
1572316815.1,286046999.2,N
1572316835.9,286046999.6,N
1572316855.7,286046996.6,N
1572316875.5,286046996.5,N
1572316895.4,286046998.7,N
1572316915.2,286046999.4,N
1572316935.1,286046997.0,N
1572316936.0,286046997.0,N
1572316955.8,286046996.7,N
1572316975.6,286046997.5,N
1572316995.5,286046999.2,N
1572317015.3,286046998.2,N
1572317035.1,286046998.7,N
1572317055.9,286046999.5,N
1572317075.7,286046996.6,N
1572317095.6,286046999.5,N
1572317115.4,286046997.4,N
1572317135.2,286046997.4,N
1572317155.1,286046997.6,N
1572317156.0,286046997.6,N
1572317175.8,286046998.0,N
1572317195.7,286046995.4,Y
1572317215.5,286046999.4,P
1572317235.3,286046998.9,N
1572317255.2,286046996.5,P
1572317275.0,286046999.1,N
1572317275.9,286046999.1,N
1572317295.7,286046999.5,N
1572317315.6,286046998.6,N
1572317335.4,286047000.9,N
1572317355.3,286047002.6,N
1572317375.1,286047000.7,N
1572317376.0,286047000.7,N
1572317395.8,286046998.1,N
1572317415.7,286047001.0,N
1572317435.5,286046998.6,N
1572317455.3,286046999.6,N
1572317475.2,286046997.0,N
1572317495.0,286046999.1,N
1572317495.9,286046999.1,N
1572317515.8,286046998.8,N
1572317535.6,286046998.2,N
1572317555.4,286046999.4,N
1572317575.3,286046998.7,N
1572317595.1,286046999.3,N
1572317615.8,286047000.4,N
1572317635.7,286047001.0,N
1572317655.5,286047000.6,N
1572317675.4,286046999.9,N
1572317695.2,286046999.9,N
1572317715.0,286046998.5,N
1572317715.9,286046998.5,N
1572317735.8,286046999.1,N
1572317755.6,286046998.1,N
1572317775.4,286046999.4,N
1572317795.3,286046997.3,N
1572317815.1,286046999.4,N
1572317835.9,286046996.6,N
1572317855.7,286046997.5,N
1572317875.5,286046997.5,N
1572317895.4,286046995.0,Y
1572317915.2,286046997.5,P
1572317935.1,286046998.0,N
1572317936.0,286046998.0,N
1572317955.8,286046997.2,Y
1572317975.6,286046996.7,P
1572317995.5,286046996.9,P
